Date,TemperatureHighF,TemperatureAvgF,TemperatureLowF,DewpointHighF,DewpointAvgF,DewpointLowF,HumidityHigh,HumidityAvg,HumidityLow,PressureMaxIn,PressureMinIn,WindSpeedMaxMPH,WindSpeedAvgMPH,GustSpeedMaxMPH,PrecipitationSumIn
2013-1-22,74,64,57,34,25,17,35,23,14,30.03,29.98,20,4,25,0.00
2013-1-23,72,58,51,49,35,17,90,47,18,30.04,29.92,28,4,39,0.00
2013-1-24,62,56,51,59,54,43,98,93,56,30.11,29.99,24,4,26,0.47
2013-1-25,68,60,54,58,55,51,98,82,68,30.10,29.95,15,4,19,0.02
2013-1-26,61,56,53,56,53,51,96,89,81,29.97,29.92,19,4,24,0.00
2013-2-5,52,50,46,49,47,45,99,92,87,30.07,30.00,11,4,14,0.00
2013-2-6,56,50,46,48,44,37,93,80,67,30.13,30.06,14,6,16,0.00
2013-2-7,54,48,42,48,44,39,93,86,67,30.13,30.00,21,9,24,0.00
2013-2-8,49,45,40,44,41,37,95,86,76,30.00,29.88,23,6,27,0.11
2013-2-9,52,46,39,45,40,32,93,81,64,30.07,29.95,18,5,21,0.00
2013-2-10,53,46,40,48,42,35,95,84,71,30.07,29.98,14,3,14,0.00
2013-2-11,55,48,42,48,43,35,95,82,66,30.22,30.03,15,4,16,0.00
2013-2-12,56,48,43,50,45,40,98,88,74,30.32,30.22,13,3,14,0.00
2013-2-13,60,52,44,49,44,39,98,74,52,30.28,30.14,19,4,19,0.00
2013-2-14,71,60,51,51,42,39,71,54,34,30.17,30.05,14,5,27,0.00
2013-2-15,77,66,59,45,38,33,45,36,20,30.17,30.11,18,7,24,0.00
2013-2-16,74,65,55,45,34,18,45,32,15,30.13,29.98,18,4,21,0.00
2013-2-17,57,50,45,49,44,28,96,79,36,29.99,29.92,20,6,23,0.00
2013-2-18,50,47,45,48,45,42,97,91,80,30.04,29.94,20,5,23,0.00
2013-2-19,50,45,39,46,40,34,97,84,73,29.95,29.73,40,9,40,0.09
2013-2-20,52,45,36,45,38,31,88,77,62,30.03,29.78,29,8,36,0.00
2013-2-21,54,48,40,45,40,35,88,76,59,30.13,30.00,22,5,23,0.00
2013-2-22,57,50,44,48,42,37,91,76,55,30.20,30.12,13,4,16,0.00
2013-2-23,54,50,44,48,43,31,93,78,47,30.19,30.03,32,8,39,0.00
2013-2-24,60,52,46,43,28,22,64,40,29,30.21,30.07,21,6,29,0.00
2013-2-25,58,51,45,48,40,31,92,68,45,30.22,30.08,15,4,16,0.00
2013-2-26,65,56,50,47,34,24,78,45,23,30.14,30.03,14,5,21,0.00
2013-2-27,64,53,46,47,40,27,93,63,32,30.29,30.14,13,4,14,0.00
2013-2-28,68,58,47,50,44,37,95,62,34,30.36,30.28,15,4,17,0.00
2013-3-1,75,66,56,51,47,44,68,51,35,30.34,30.14,14,5,14,0.00
2013-3-2,70,61,50,52,46,39,97,61,35,30.17,30.03,15,4,18,0.00
2013-3-3,59,52,47,54,50,47,97,92,70,30.07,29.99,17,6,24,0.00
2013-3-4,56,49,46,50,47,45,98,92,81,30.10,30.01,21,6,22,0.00
2013-3-5,52,49,48,47,44,42,95,83,73,30.08,29.99,17,6,21,0.00
2013-3-6,53,49,45,51,47,43,99,93,78,30.08,29.98,38,10,41,0.29
2013-3-7,53,48,43,50,44,39,96,86,69,29.98,29.80,20,6,26,0.15
2013-3-8,52,47,44,48,44,41,95,89,82,30.07,29.76,33,10,43,0.05
2013-3-9,56,50,41,50,43,37,90,79,64,30.26,30.06,18,6,23,0.00
2013-3-10,58,51,44,52,47,42,97,88,76,30.30,30.19,19,4,23,0.00
2013-3-11,65,54,43,52,46,42,98,76,50,30.21,30.04,15,4,16,0.00
2013-3-12,65,54,47,54,48,45,97,81,56,30.07,30.00,15,4,16,0.00
2013-3-13,74,54,43,59,49,43,99,87,41,30.09,30.02,14,2,23,0.01
2013-3-14,65,50,43,59,49,43,99,95,79,30.10,30.01,17,3,21,0.00
2013-3-15,72,59,50,56,51,48,97,77,49,30.03,29.93,13,3,18,0.00
2013-3-16,69,54,45,57,50,44,98,87,61,30.02,29.93,19,3,19,0.00
2013-3-17,68,56,47,53,46,37,96,70,46,30.03,29.96,23,6,24,0.00
2013-3-18,68,52,45,52,47,43,97,83,49,30.07,29.95,23,4,26,0.01
2013-3-19,71,56,47,52,48,40,96,78,36,30.08,30.00,23,5,25,0.00
2013-3-20,65,55,49,52,47,35,96,75,43,30.08,30.01,21,6,25,0.00
2013-3-21,56,51,47,51,48,45,98,87,76,30.03,29.90,19,6,22,0.00
2013-3-22,64,56,48,47,41,26,87,60,28,29.98,29.90,14,4,18,0.00
2013-3-23,68,57,48,46,33,19,90,45,21,30.04,29.95,15,5,18,0.00
2013-3-24,66,54,48,48,44,36,94,69,39,30.02,29.90,13,3,18,0.00
2013-3-25,67,52,45,55,48,44,97,87,48,29.96,29.88,11,2,15,0.00
2013-3-26,57,49,45,50,47,43,97,91,75,29.98,29.90,13,5,17,0.00
2013-3-27,58,51,45,54,49,44,99,95,81,30.02,29.92,16,4,18,0.00
2013-3-28,63,54,51,56,52,50,98,93,75,30.05,29.98,23,4,24,0.00
2013-3-29,61,52,44,55,50,44,99,95,79,30.08,30.00,12,4,16,0.00
2013-3-30,63,54,49,55,52,49,100,92,71,30.08,30.00,21,6,25,0.22
2013-3-31,62,55,52,56,54,51,100,96,75,30.07,30.01,20,6,20,0.00
2013-4-1,60,54,50,58,53,49,100,97,83,30.13,30.05,19,7,23,0.04
2013-4-2,60,53,47,56,51,46,99,93,79,30.12,30.01,23,6,25,0.00
2013-4-3,69,54,47,59,51,47,100,92,56,30.07,29.97,15,4,15,0.00
2013-4-4,62,54,49,57,52,48,100,94,75,30.10,30.01,13,5,14,0.02
2013-4-5,58,54,50,55,52,50,100,96,84,30.12,30.05,28,6,32,0.01
2013-4-6,64,54,48,54,51,47,99,91,64,30.16,30.05,31,9,38,0.00
2013-4-7,61,54,50,54,51,47,99,88,72,30.09,29.89,32,12,40,0.00
2013-4-8,54,51,48,50,45,42,98,82,69,29.90,29.80,39,21,44,0.00
2013-4-9,67,58,49,48,43,33,86,59,29,30.00,29.89,22,10,26,0.00
2013-4-10,75,61,52,50,40,30,87,49,20,30.11,29.98,15,4,17,0.00
2013-4-11,58,51,47,51,48,45,96,89,76,30.01,29.79,30,7,32,0.00
2013-4-12,65,51,44,54,48,43,98,89,65,29.86,29.76,20,6,26,0.00
2013-4-13,61,50,44,52,47,43,99,92,72,29.89,29.79,10,4,13,0.00
2013-4-14,63,51,43,52,46,42,98,86,66,29.86,29.77,14,4,17,0.01
2013-4-15,52,48,45,49,44,38,96,84,72,29.93,29.83,35,15,47,0.00
2013-4-16,53,48,39,44,38,32,80,70,53,30.05,29.93,35,11,37,0.00
2013-4-17,61,54,46,43,37,27,87,52,33,30.16,30.05,30,11,37,0.00
2013-4-18,69,58,47,46,35,27,94,46,24,30.20,30.14,16,4,19,0.00
2013-4-19,74,58,47,50,45,36,95,67,26,30.18,29.98,18,4,21,0.00
2013-4-20,77,59,49,53,48,46,93,72,39,30.02,29.91,19,5,24,0.00
2013-4-21,75,63,49,54,48,44,94,62,36,29.96,29.88,12,3,16,0.00
2013-4-22,59,53,50,53,50,45,98,91,60,29.96,29.85,14,6,19,0.00
2013-4-23,59,52,49,55,51,49,99,94,80,29.94,29.85,13,2,16,0.00
2013-4-24,57,53,49,54,50,49,99,92,78,29.94,29.83,11,2,14,0.01
2013-4-25,62,55,49,52,50,48,95,82,65,30.08,29.94,17,5,20,0.00
2013-4-26,64,54,48,55,50,47,97,88,69,30.16,30.07,19,5,20,0.00
2013-4-27,60,52,47,56,50,47,99,93,79,30.16,30.01,16,5,18,0.00
2013-4-28,64,53,47,59,50,46,100,90,72,30.03,29.84,9,3,11,0.00
2013-4-29,67,53,46,56,50,46,99,92,68,29.87,29.75,15,4,15,0.00
2013-4-30,50,50,49,50,49,49,99,99,99,29.79,29.76,10,3,10,0.00